Terminal Aerodrome Forecast
Issued by NWS La Crosse, WI

Home | Current Version | Previous Version | Text Only | Print | Product List | Glossary On
Versions: 1 2 3 4 5 6 7 8 9 10 11 12 13 14 15 16 17 18 19 20 21 22 23 24 25
000
FTUS43 KARX 231734
TAFLSE
TAF
KLSE 231734Z 2318/2418 17009KT P6SM BKN008
     FM232200 21005KT P6SM SCT020
     FM240000 15004KT P6SM SKC
     FM240700 16003KT 2SM BR SCT005
     FM241000 16004KT 1/4SM FG BKN002
     FM241500 18006KT 4SM BR SCT002=

USA.gov is the U.S. government's official web portal to all federal, state and local government web resources and services.